Location: *
(38.4303°S, 157.0822°W)
Time: 15:24:16
(UTC+00:00)

CZ-2C R/B - Pass Details

Date: 21 May 2024
Orbit: 463 x 510 km, 97.8° (Epoch: 23 June)

Event Time Altitude Azimuth Distance (km) Brightness Sun altitude
Rises 16:52:54 0° 350° (N) 2,514 6.3 -7.3°
Reaches altitude 10° 16:55:07 10° 338° (NNW) 1,655 5.3 -6.9°
Maximum altitude 16:58:13 28° 277° (W) 946 3.6 -6.3°
Drops below altitude 10° 17:01:25 10° 216° (SW) 1,704 4.8 -5.8°
Sets 17:03:45 0° 204° (SSW) 2,607 5.8 -5.3°
